This demonstration page uses our WeatherBlox Daily Observations layout. Learn more.

Hourly Observations for March 20, 2017

Temp ( °F °C ) Dew Point ( °F °C ) Humidity (%) Winds ( mph kmh ) Pressure ( in mb ) Visibility ( mi km ) Precip ( " mm )
12:15 am 00:15 Clear 58 14.2 29 -1.4 34 34 NNW 10 17 29.91 1013 10 16.0934 0 0
12:35 am 00:35 Clear 57 14.1 35 1.9 44 44 NNW 10 17 29.94 1014 10 16.0934 0 0
12:55 am 00:55 Clear 56 13.3 37 3 50 50 N 7 11 29.94 1014 10 16.0934 0 0
1:15 am 01:15 Clear 53 11.8 37 3 55 55 NNW 8 13 29.97 1015 10 16.0934 0 0
1:35 am 01:35 Clear 49 9.6 36 2.4 61 61 NW 6 9 29.97 1015 10 16.0934 0 0
1:55 am 01:55 Clear 49 9.5 37 2.8 63 63 NNW 8 13 29.97 1015 10 16.0934 0 0
2:15 am 02:15 Clear 49 9.6 37 2.8 63 63 N 8 13 29.97 1015 10 16.0934 0 0
2:35 am 02:35 Clear 48 9.1 37 2.6 64 64 N 8 13 29.97 1015 10 16.0934 0 0
2:55 am 02:55 Clear 49 9.2 38 3.2 66 66 NNW 8 13 29.97 1015 10 16.0934 0 0
3:15 am 03:15 Clear 47 8.3 37 2.8 69 69 NNW 7 11 30 1016 10 16.0934 0 0
3:35 am 03:35 Clear 47 8.2 37 3 70 70 NNW 9 15 30 1016 10 16.0934 0 0
3:55 am 03:55 Clear 47 8.5 38 3.3 70 70 NNW 8 13 30 1016 10 16.0934 0 0
4:15 am 04:15 Clear 46 8 37 3 71 71 NNW 9 15 30 1016 10 16.0934 0 0
4:35 am 04:35 Clear 46 7.7 37 2.7 71 71 N 9 15 30 1016 10 16.0934 0 0
4:55 am 04:55 Clear 45 7.2 36 2.3 71 71 NNW 9 15 30 1016 10 16.0934 0 0
5:15 am 05:15 Clear 44 6.9 35 1.9 71 71 N 9 15 30 1016 10 16.0934 0 0
5:35 am 05:35 Clear 44 6.7 35 1.7 71 71 N 8 13 30 1016 10 16.0934 0 0
5:55 am 05:55 Clear 44 6.8 35 1.7 70 70 N 8 13 30 1016 10 16.0934 0 0
6:15 am 06:15 Clear 45 7 36 2 71 71 N 9 15 30 1016 10 16.0934 0 0
6:35 am 06:35 Clear 43 6.3 35 1.8 73 73 N 9 15 30.03 1017 10 16.0934 0 0
6:55 am 06:55 Clear 43 6 35 1.8 75 75 N 8 13 30.03 1017 10 16.0934 0 0
7:15 am 07:15 Clear 43 6.3 35 1.9 74 74 N 8 13 30.03 1017 10 16.0934 0 0
7:35 am 07:35 Clear 43 5.9 35 1.6 74 74 N 10 17 30.09 1019 10 16.0934 0 0
7:55 am 07:55 Sunny 42 5.7 35 1.6 75 75 N 9 15 30.09 1019 10 16.0934 0 0
8:15 am 08:15 Sunny 42 5.8 35 1.5 74 74 NNW 9 15 30.12 1020 10 16.0934 0 0
8:35 am 08:35 Sunny 44 6.4 35 1.6 72 72 N 12 19 30.12 1020 10 16.0934 0 0
8:55 am 08:55 Sunny 45 7.2 35 1.7 68 68 N 16 26 30.12 1020 10 16.0934 0 0
9:15 am 09:15 Sunny 46 7.9 35 1.6 65 65 N 18 30 30.12 1020 10 16.0934 0 0
9:35 am 09:35 Sunny 48 8.7 35 1.9 63 63 N 16 26 30.12 1020 10 16.0934 0 0
9:55 am 09:55 Sunny 49 9.7 36 2 59 59 N 17 28 30.12 1020 10 16.0934 0 0
10:15 am 10:15 Sunny 50 10 35 1.9 57 57 N 18 30 30.15 1021 10 16.0934 0 0
10:35 am 10:35 Sunny 51 10.6 35 1.9 55 55 NNE 21 33 30.09 1019 10 16.0934 0 0
10:55 am 10:55 Sunny 52 11.1 35 1.8 53 53 NNE 20 31 30.12 1020 10 16.0934 0 0
11:15 am 11:15 Sunny 53 11.7 36 2.1 52 52 NE 21 33 30.12 1020 10 16.0934 0 0
11:35 am 11:35 Sunny 54 12.4 36 2.4 51 51 NE 17 28 30.12 1020 10 16.0934 0 0
11:55 am 11:55 Sunny 56 13.2 36 2.4 48 48 NNE 16 26 30.12 1020 10 16.0934 0 0
12:15 pm 12:15 Sunny 57 14 37 2.5 46 46 NNE 18 30 30.09 1019 10 16.0934 0 0
12:35 pm 12:35 Sunny 59 14.8 36 2.3 43 43 NE 17 28 30.09 1019 10 16.0934 0 0
12:55 pm 12:55 Sunny 60 15.5 36 2.1 41 41 NE 20 31 30.09 1019 10 16.0934 0 0
1:15 pm 13:15 Sunny 61 16.1 35 1.7 38 38 NNE 18 30 30.09 1019 10 16.0934 0 0
1:35 pm 13:35 Sunny 62 16.5 34 1 35 35 NNE 21 33 30.06 1018 10 16.0934 0 0
1:55 pm 13:55 Sunny 61 16.1 34 0.9 36 36 NE 18 30 30.06 1018 10 16.0934 0 0
2:15 pm 14:15 Sunny 62 16.9 33 0.4 33 33 NE 17 28 30.03 1017 10 16.0934 0 0
2:35 pm 14:35 Sunny 63 17.1 33 0.4 32 32 NE 17 28 30.03 1017 10 16.0934 0 0
2:55 pm 14:55 Sunny 64 17.7 33 0.4 31 31 NE 13 20 30.03 1017 10 16.0934 0 0
3:15 pm 15:15 Sunny 65 18.5 33 0.6 30 30 NE 16 26 30 1016 10 16.0934 0 0
3:35 pm 15:35 Sunny 65 18.6 32 0.2 29 29 NE 14 22 30 1016 10 16.0934 0 0
3:55 pm 15:55 Sunny 67 19.3 33 0.4 28 28 NE 15 24 30 1016 10 16.0934 0 0
4:15 pm 16:15 Sunny 66 19 32 0.1 28 28 ENE 14 22 30 1016 10 16.0934 0 0
4:35 pm 16:35 Sunny 67 19.5 32 0 27 27 ENE 16 26 30 1016 10 16.0934 0 0
4:55 pm 16:55 Sunny 65 18.6 32 0 29 29 NE 12 19 30 1016 10 16.0934 0 0
5:15 pm 17:15 Sunny 65 18.6 32 -0.1 28 28 NNE 15 24 30 1016 10 16.0934 0 0
5:35 pm 17:35 Sunny 66 18.7 31 -0.4 28 28 NE 15 24 30 1016 10 16.0934 0 0
5:55 pm 17:55 Hazy 65 18.1 31 -0.6 28 28 NE 15 24 30 1016 5 8.0467 0 0
6:15 pm 18:15 Sunny 64 17.9 30 -1 28 28 NE 16 26 30.03 1017 10 16.0934 0 0
6:35 pm 18:35 Sunny 64 17.5 30 -1.2 28 28 NE 15 24 30.03 1017 10 16.0934 0 0
6:55 pm 18:55 Sunny 61 16.1 29 -1.6 30 30 NE 16 26 30.06 1018 10 16.0934 0 0
7:15 pm 19:15 Sunny 59 15.1 29 -1.7 32 32 ENE 12 19 30.06 1018 10 16.0934 0 0
7:35 pm 19:35 Sunny 58 14.5 28 -2 32 32 E 10 17 30.06 1018 10 16.0934 0 0
7:55 pm 19:55 Clear 55 12.8 28 -2.4 35 35 ENE 8 13 30.09 1019 10 16.0934 0 0
8:15 pm 20:15 Clear 51 10.7 27 -2.9 39 39 ENE 9 15 30.12 1020 10 16.0934 0 0
8:35 pm 20:35 Clear 50 9.9 26 -3.2 40 40 ENE 8 13 30.15 1021 10 16.0934 0 0
8:55 pm 20:55 Clear 48 8.7 26 -3.5 42 42 ENE 8 13 30.15 1021 10 16.0934 0 0
9:15 pm 21:15 Clear 47 8.6 27 -3 44 44 ENE 8 13 30.15 1021 10 16.0934 0 0
9:35 pm 21:35 Clear 47 8.3 26 -3.3 44 44 NE 7 11 30.15 1021 10 16.0934 0 0
9:55 pm 21:55 Clear 44 6.5 28 -2.3 54 54 NE 5 7 30.18 1022 10 16.0934 0 0
10:15 pm 22:15 Clear 42 5.5 27 -2.9 55 55 NNE 8 13 30.18 1022 10 16.0934 0 0
10:35 pm 22:35 Clear 41 5 27 -2.8 57 57 NNE 9 15 30.21 1023 10 16.0934 0 0
10:55 pm 22:55 Clear 41 5.1 26 -3.2 55 55 NNE 9 15 30.21 1023 10 16.0934 0 0
11:15 pm 23:15 Clear 42 5.8 27 -2.9 54 54 N 8 13 30.24 1024 10 16.0934 0 0
11:35 pm 23:35 Clear 43 6 28 -2.3 56 56 NNE 9 15 30.24 1024 10 16.0934 0 0
11:55 pm 23:55 Clear 46 8 27 -3 46 46 NE 12 19 30.18 1022 10 16.0934 0 0

Powered by AerisWeather